Wind_Speed
22 21 21 20 21 23 21 21 24 23 23 23 23 22 22 21 23 26 22 22 11 18 21 22 22 22 21 8 12 9 7 15 23 20 16 6 5 9 4 4 3 5 7 10 21
21 22 22 22 23 23 24 24 24 24 25 24 23 24 21 20 25 28 32 15 8 16 17 20 16 17 8 8 8 11 11 19 12 15 16 8 5 8 6 9 4 7 15 14 15
21 21 22 23 23 25 25 26 26 25 25 24 23 22 20 18 14 5 15 11 10 14 15 14 20 17 17 15 14 10 19 8 16 13 15 2 7 14 15 11 9 12 15 14 14
21 23 23 25 25 25 26 27 27 27 25 25 23 21 17 12 5 6 6 15 21 11 14 7 10 15 12 19 16 19 18 18 15 9 9 7 2 8 11 11 10 10 17 14 14
22 23 23 25 26 27 27 28 28 27 26 24 22 17 12 6 14 23 9 11 6 6 11 7 7 12 15 13 15 21 19 20 19 14 6 4 10 8 13 9 5 16 18 18 15
21 23 24 25 27 28 28 30 30 28 25 24 16 12 8 8 11 11 13 7 3 1 4 7 5 10 11 16 16 9 19 20 19 19 16 10 6 9 13 11 7 9 15 15 18
22 23 25 26 28 29 31 32 29 27 25 16 11 7 7 11 11 9 8 6 8 9 7 7 8 3 10 9 16 19 20 16 21 16 14 10 9 9 17 23 10 7 12 12 16
22 24 25 26 27 29 32 32 28 25 15 12 12 9 5 5 4 7 12 14 5 4 7 8 7 4 2 11 10 14 18 15 14 17 5 9 15 12 19 8 6 10 13 13 14
23 25 26 26 27 29 30 30 29 18 14 12 8 6 2 4 7 14 13 14 15 9 6 9 7 2 2 6 9 9 13 18 15 16 11 8 3 15 9 7 14 8 13 14 13
23 24 25 26 27 27 26 34 22 7 15 4 4 5 3 10 19 20 13 12 6 10 2 5 3 4 4 7 13 10 9 15 18 17 19 16 13 7 14 9 11 13 11 16 17
24 25 26 27 27 20 26 14 7 1 9 6 12 9 11 17 15 13 8 9 9 8 9 9 6 6 14 15 14 17 13 19 14 19 17 19 14 8 8 7 7 14 11 13 16
23 24 26 26 23 12 13 7 6 5 9 12 11 8 8 6 10 14 5 7 7 9 11 8 8 13 12 13 17 17 16 16 11 14 18 15 19 16 13 8 4 12 12 12 13
23 25 27 26 13 10 7 12 10 4 4 7 5 4 7 6 11 13 5 9 11 12 10 12 11 4 9 13 7 13 17 14 11 13 15 13 17 15 16 7 10 10 11 10 20
24 26 28 23 4 14 3 16 11 2 3 4 5 4 8 13 5 10 6 6 4 8 9 7 11 14 9 13 12 9 7 19 17 7 8 10 8 12 14 17 17 10 15 7 15
25 27 21 8 9 8 13 14 6 2 2 9 7 2 16 12 9 3 7 3 6 11 7 4 4 9 8 11 11 5 10 12 7 3 1 7 4 5 15 12 13 12 16 7 14
26 23 12 6 12 11 16 11 3 3 3 5 11 16 15 10 9 2 13 6 5 7 9 16 13 10 7 9 8 6 4 6 7 2 3 3 10 5 15 20 19 17 18 13 15
28 13 7 9 9 21 14 5 3 4 11 11 14 17 15 14 12 12 10 6 6 6 4 11 14 13 11 6 7 10 5 1 2 1 3 5 8 10 17 18 21 20 18 15 21
24 8 7 6 21 14 8 2 5 10 12 15 14 17 9 15 11 16 11 7 9 6 9 6 3 6 14 11 6 8 4 3 5 4 5 9 4 6 8 17 18 20 19 12 16
15 5 5 16 19 10 3 3 3 7 10 11 16 7 9 15 8 9 11 2 4 6 5 4 4 8 6 8 12 7 5 4 3 4 2 5 6 5 7 5 10 21 19 17 17
12 8 4 22 16 6 2 2 5 8 9 7 7 8 12 14 9 11 5 3 2 4 7 4 6 3 8 6 10 6 5 3 3 3 5 5 8 4 8 13 8 7 14 17 14
5 3 10 22 10 3 2 3 4 8 7 4 5 5 10 10 12 7 5 10 6 9 15 7 4 3 3 5 7 6 3 3 2 2 4 5 2 5 4 4 7 8 10 18 19
5 3 16 20 3 2 2 3 6 8 8 5 6 7 7 13 5 3 5 7 15 18 10 4 4 5 6 2 5 11 6 3 3 3 4 2 2 7 7 9 9 5 4 13 22
3 3 13 14 3 4 8 4 6 9 8 7 5 6 10 10 6 9 12 11 14 19 3 7 3 5 3 4 5 4 11 9 2 2 3 2 2 5 6 8 9 8 7 5 17
2 4 3 3 2 3 6 6 8 7 8 12 8 6 9 9 7 11 12 9 20 15 11 10 4 6 6 7 2 2 3 5 4 1 1 3 8 10 9 7 7 9 8 7 6
3 1 1 3 4 5 4 5 9 10 7 9 4 11 12 5 13 3 14 17 11 5 9 7 5 7 13 16 9 6 8 5 2 4 1 7 12 7 6 7 8 7 8 6 5
2 3 3 2 5 5 3 5 9 12 6 8 7 14 14 11 9 17 13 6 6 5 10 3 5 10 8 4 8 7 11 10 4 2 3 16 13 10 11 17 17 9 7 7 5
4 0 2 1 4 3 2 5 9 9 5 9 14 12 12 12 17 20 18 18 16 17 8 3 4 6 3 7 3 7 3 7 6 8 4 12 9 10 12 18 16 15 12 8 7
Wind_Direction
346 343 342 337 335 334 330 329 327 325 321 317 316 316 312 316 314 301 284 274 287 306 289 277 265 272 290 246 222 216 214 220 226 215 232 260 171 156 209 123 98 117 74 96 114
347 342 338 337 335 331 326 324 322 321 321 319 320 319 323 322 313 295 287 261 333 337 296 224 238 243 234 242 223 224 210 230 223 226 235 180 173 259 192 197 176 108 108 108 132
341 339 335 334 333 330 326 324 320 319 318 316 318 316 318 324 308 52 71 90 29 349 326 234 245 237 226 231 223 233 236 258 244 268 243 344 239 248 192 216 198 163 136 144 152
342 341 338 334 332 329 326 322 319 319 317 316 314 312 314 305 287 43 321 285 302 334 349 250 266 257 266 225 240 235 239 234 244 276 268 283 236 274 227 216 164 164 153 150 156
342 339 339 337 334 330 325 322 319 318 316 314 313 310 310 274 258 287 306 338 336 6 347 347 294 256 257 236 231 255 250 242 239 222 243 243 258 256 292 243 115 167 159 157 156
342 339 337 337 334 330 326 321 319 319 316 313 312 311 281 280 274 345 325 303 259 250 352 323 303 324 307 265 240 241 237 254 255 220 212 219 253 203 282 262 141 178 157 158 155
340 336 335 333 333 329 325 321 319 317 315 310 307 302 252 254 314 332 301 311 285 242 227 251 307 324 341 284 270 256 276 238 240 260 205 172 245 214 250 273 157 193 141 160 157
340 338 336 332 332 329 325 320 319 318 307 310 297 272 266 340 315 297 339 324 325 263 252 203 196 324 258 317 300 275 243 257 229 238 195 157 232 244 225 301 204 182 155 168 160
342 338 334 333 333 330 327 330 327 308 306 308 267 225 297 283 307 340 334 315 312 306 309 164 173 186 239 234 281 242 238 223 237 235 188 168 242 222 235 302 285 197 167 167 152
344 340 337 337 335 333 340 330 319 296 345 202 253 256 278 333 338 315 297 263 271 283 142 156 194 196 220 220 216 220 221 231 215 224 221 183 227 175 232 227 298 304 175 163 164
343 341 340 336 335 344 345 351 4 119 5 316 310 291 307 327 329 309 8 325 269 244 255 222 207 211 210 225 260 272 259 226 240 217 205 204 203 181 188 214 257 277 261 153 149
341 340 338 333 336 340 6 27 28 294 310 302 258 272 301 16 312 333 359 337 316 280 274 194 239 243 217 232 221 252 265 279 254 224 225 206 206 201 189 190 228 304 315 157 137
340 338 336 332 332 333 344 19 339 312 279 286 280 321 351 310 305 320 332 318 303 293 271 271 266 295 242 217 235 234 244 261 231 265 270 181 222 200 203 199 223 223 283 305 152
339 338 335 338 327 328 48 345 337 276 295 47 24 65 333 317 308 14 20 344 314 304 305 268 265 273 251 234 200 254 282 241 247 252 233 243 228 210 189 198 195 187 252 310 157
340 339 341 344 300 334 329 330 329 229 30 356 350 300 336 324 308 25 15 303 269 292 304 269 342 320 259 237 204 248 346 252 273 270 261 245 266 217 173 193 211 207 224 209 178
340 342 353 3 302 337 329 322 247 241 16 3 359 341 336 359 1 0 329 153 308 291 262 267 275 262 272 238 241 202 253 305 327 106 234 201 215 211 181 194 192 198 202 201 193
342 342 352 327 324 319 322 270 263 31 358 359 339 329 313 3 3 4 350 330 27 339 332 301 243 237 235 254 224 169 124 194 31 10 241 175 203 257 195 192 194 193 203 190 181
345 338 313 316 325 323 307 276 29 17 18 331 334 309 26 20 353 349 347 358 32 7 305 336 345 193 196 225 211 179 191 154 169 183 224 123 226 227 224 190 195 198 200 192 161
351 335 288 329 328 324 292 41 10 14 350 336 328 8 351 4 347 353 327 76 6 42 10 310 280 318 253 190 229 160 197 21 355 222 271 178 180 255 223 184 173 186 190 170 176
342 300 39 338 335 306 34 90 351 17 348 346 354 4 337 348 359 341 305 102 53 61 39 286 286 252 283 180 219 176 125 92 145 262 191 178 191 226 155 191 183 196 180 164 151
332 300 359 349 353 28 51 349 344 350 2 0 327 309 340 349 326 336 291 319 340 1 350 271 275 323 266 209 189 157 133 207 168 261 292 144 153 348 327 151 197 194 170 162 155
314 328 354 349 33 326 357 348 344 356 4 345 325 336 345 342 319 304 286 320 347 4 323 322 291 277 240 40 253 191 178 228 176 224 254 109 25 28 8 6 17 164 154 152 169
3 310 6 22 39 351 350 356 356 354 357 4 320 8 330 350 322 308 329 334 352 339 347 348 310 304 320 35 299 157 217 198 7 346 277 84 82 62 49 30 7 27 54 118 160
19 338 23 41 178 335 358 357 342 24 330 353 306 307 9 327 324 299 290 308 337 321 309 334 266 260 326 300 244 148 242 258 203 87 161 165 93 31 16 50 35 12 26 41 82
4 10 47 345 15 11 354 318 353 9 350 330 337 352 342 326 313 254 320 321 326 349 9 351 278 288 289 280 257 207 189 157 150 303 302 81 78 50 50 53 39 33 10 57 46
9 356 342 321 350 342 340 357 353 338 328 321 333 332 323 306 284 302 326 330 272 319 350 308 282 317 294 281 209 156 159 139 122 351 86 93 83 65 53 49 31 28 30 42 56
353 65 307 80 314 342 41 304 330 343 310 338 321 323 318 310 317 294 283 276 264 279 293 273 301 326 278 344 187 143 6 93 87 41 322 68 79 69 57 63 30 14 19 38 21
Height
817 814 811 808 804 801 797 793 791 788 784 781 778 775 771 768 764 759 753 751 749 749 747 748 745 745 744 742 744 741 748 738 737 735 727 718 723 716 715 723 720 722 733 733 740
817 813 810 807 804 800 796 792 788 785 782 778 775 772 769 766 761 752 742 747 747 746 741 741 741 742 743 739 741 743 739 727 721 724 725 726 723 724 725 727 729 728 733 741 742
816 812 809 806 802 798 793 789 785 782 778 775 771 769 766 764 759 745 743 744 746 745 740 739 737 734 737 735 735 732 730 726 722 718 721 736 726 726 727 734 723 729 732 739 745
815 811 808 803 799 796 792 786 782 778 774 771 768 766 764 763 757 745 747 745 743 745 741 739 736 736 736 731 728 735 725 727 725 723 727 734 729 737 720 718 716 721 726 734 742
814 810 806 802 797 793 789 784 779 775 772 769 766 764 762 759 751 744 745 744 743 744 745 743 742 738 735 725 728 726 723 719 719 720 726 735 734 727 727 712 710 716 723 728 737
813 809 805 800 795 790 786 781 776 772 768 765 762 762 761 760 745 744 743 743 743 744 745 746 744 744 740 727 725 722 722 718 713 713 720 737 737 739 723 710 713 716 724 729 732
812 808 803 798 793 788 782 777 772 767 763 760 759 759 756 752 745 745 743 741 740 741 742 746 746 747 745 734 726 720 725 713 712 710 715 728 737 730 726 728 714 718 725 730 732
810 806 802 797 792 786 779 771 767 763 760 758 757 757 752 745 744 743 742 740 739 738 740 742 746 747 748 738 728 726 724 729 709 710 719 723 724 725 723 728 716 718 724 729 733
810 805 801 796 791 784 776 767 762 760 757 755 756 754 748 744 743 742 743 740 739 737 740 742 748 749 746 745 738 727 726 722 720 704 713 724 722 718 721 727 735 720 720 726 732
808 804 799 795 789 782 775 766 759 758 753 752 752 753 748 745 742 740 738 737 737 737 744 745 748 749 749 744 740 726 725 711 713 707 703 721 723 714 719 729 725 733 714 721 729
807 803 798 792 787 782 775 766 764 758 760 756 754 750 746 746 744 737 735 736 734 735 738 745 748 743 743 739 731 717 712 712 700 697 701 706 719 717 721 727 735 735 723 718 724
806 801 796 790 786 783 780 777 781 782 772 756 751 746 744 745 743 737 736 737 734 736 728 737 737 729 722 724 730 734 725 718 697 687 693 703 711 712 717 720 725 725 730 721 726
805 800 794 788 784 782 780 782 782 780 777 754 747 745 744 745 739 736 734 735 736 733 729 731 716 710 715 723 732 733 731 721 711 699 690 697 710 711 709 714 723 734 731 723 719
804 799 793 786 784 782 780 782 781 780 778 751 746 749 745 739 734 735 737 740 737 736 725 725 715 712 713 718 730 734 718 718 709 719 717 691 717 707 706 715 718 726 728 732 725
802 797 791 787 788 784 785 781 780 780 774 751 747 748 745 740 736 739 741 739 743 738 737 725 718 717 715 712 713 722 724 709 707 725 722 709 719 695 698 716 717 719 721 728 726
800 795 791 790 786 785 782 779 780 777 784 754 750 751 746 735 733 735 736 740 740 739 734 727 719 717 715 709 710 720 731 728 716 723 717 715 716 706 698 696 704 707 711 717 724
799 795 793 792 789 783 779 776 776 778 759 765 763 757 746 743 739 739 748 746 751 753 740 720 711 712 712 716 711 720 730 736 757 747 713 706 715 695 677 682 689 696 700 703 722
797 795 793 791 787 782 778 777 785 775 778 771 768 752 745 748 749 747 744 751 752 757 752 736 723 708 706 712 717 719 726 743 760 750 713 713 709 692 674 673 676 684 691 697 703
795 794 793 790 785 782 781 787 792 785 782 780 769 761 761 755 761 760 754 755 759 762 765 758 722 717 699 702 708 716 731 717 732 724 722 704 693 677 671 673 675 681 688 694 698
797 794 793 790 785 783 786 789 788 781 781 779 780 773 778 770 775 771 760 757 758 755 760 754 739 708 702 699 703 714 710 732 736 723 706 703 698 692 682 679 678 680 683 691 700
798 794 793 790 788 788 798 796 786 783 782 784 785 784 779 783 778 773 767 751 750 752 753 756 745 721 715 707 710 715 723 728 717 725 705 701 702 689 686 675 678 677 678 686 700
800 802 796 790 797 801 798 792 790 788 785 784 781 779 783 779 783 780 766 755 752 759 763 755 752 746 708 696 697 701 711 719 723 725 711 709 713 694 695 692 688 679 678 685 694
808 804 801 795 810 807 800 793 791 791 791 790 789 785 781 785 800 772 766 755 754 762 764 760 751 743 710 721 704 707 703 710 715 707 714 714 706 696 695 696 694 692 688 689 694
812 814 810 812 816 816 816 807 800 791 791 792 789 782 790 792 786 787 779 763 763 760 753 756 749 740 726 727 729 730 722 709 709 729 712 703 707 708 707 703 702 702 700 701 702
817 820 820 818 817 819 820 812 805 803 798 794 791 790 795 817 794 785 776 770 765 754 762 763 752 741 728 716 710 717 720 725 719 716 717 709 712 718 714 714 714 713 709 706 707
822 825 821 818 816 818 817 819 813 809 807 803 801 797 796 801 797 790 785 786 781 764 772 769 753 736 724 700 701 708 716 719 728 719 709 710 723 728 728 726 726 724 719 717 715
824 824 823 820 818 818 821 819 813 810 807 801 801 800 799 790 786 781 778 775 775 774 771 771 754 744 716 713 708 716 727 723 735 739 730 726 731 733 739 733 744 740 732 727 725